[[{"header":{"parameterUnit":"m.s-1","parameterCategory":1,"la1":30.2991,"la2":30.254,"lo1":-89.0895,"lo2":-89.0444,"dy":0.0017,"dx":0.0017,"nx":28,"ny":28,"refTime":"2024-07-22T03:00:00:Z","depth":0,"parameterNumber":2,"parameterNumberName":"U-component_of_WINDS"},"data":[0,0,0,0,0,0,0,0,0,0,0,0,0,0,0,0,0,0,0,0,0,0,0,0,0,0,0,0,0,0,0,0,0,0,0,0,0,0,0,0,0,0,0,0,0,0,0,0,0,0,0,0,0,0,0,0,0,0,3.1929,3.193,0,3.1982,3.1982,3.1983,3.1959,3.1958,3.1956,3.1955,3.201,3.2013,3.2015,0,0,0,0,0,0,0,0,0,0,0,0,0,3.1809,3.1812,3.1929,3.193,3.193,3.1982,3.1982,3.1983,3.1959,3.1958,3.1956,3.1954,3.2009,3.2012,3.2016,0,0,0,0,0,0,0,0,0,0,0,0,0,3.1862,3.1812,3.1929,3.1925,3.1925,3.1982,3.1982,3.1983,3.196,3.1958,3.1956,3.1954,3.2008,3.2012,3.2016,3.2081,0,0,3.2029,3.203,0,0,0,0,0,0,0,0,3.1859,3.1866,3.1925,3.1925,3.1925,3.1962,3.196,3.2016,3.196,3.1946,3.1955,3.1953,3.1996,3.2001,3.2015,3.2083,3.2086,3.2029,3.2031,3.2033,3.2034,0,0,0,0,0,0,0,3.1855,3.1864,3.195,3.1926,3.1926,3.192,3.1926,3.1971,3.1982,3.1947,3.1946,3.1952,3.1996,3.2011,3.2016,3.2087,3.2029,3.2032,3.2035,3.2036,3.2211,3.2213,0,0,0,0,0,0,3.1851,3.1861,3.1948,3.1952,3.1886,3.1924,3.193,3.1952,3.1981,3.1983,3.1954,3.1951,3.2005,3.2011,3.2018,3.2096,3.2033,3.2037,3.2039,3.2209,3.2212,3.2214,0,0,0,0,0,0,3.1849,3.1859,3.1946,3.1906,3.1916,3.1928,3.1953,3.1954,3.197,3.1986,3.1988,3.1968,3.2004,3.2012,3.2065,3.2097,3.2039,3.2042,3.2206,3.221,3.2213,3.2252,0,0,0,0,0,0,3.1845,3.1859,3.1883,3.1906,3.1919,3.1993,3.1955,3.1957,3.1977,3.1973,3.1999,3.2002,3.2003,3.2059,3.2069,3.2102,3.2046,3.2204,3.2208,3.2212,3.2248,3.2256,3.2263,0,0,0,0,0,3.1841,3.1892,3.1884,3.1895,3.1949,3.1994,3.2001,3.2001,3.1979,3.2004,3.2015,3.2001,3.2092,3.2065,3.2076,3.211,3.2202,3.2207,3.2211,3.2244,3.2255,3.2263,0,0,0,0,0,0,3.1872,3.1895,3.1887,3.1946,3.1969,3.199,3.2021,3.2012,3.2041,3.2037,3.2036,3.2042,3.2097,3.2109,3.2078,3.2175,3.2144,3.2151,3.2165,3.2175,3.2182,3.2178,3.2049,0,0,0,0,0,3.1886,3.192,3.1938,3.1989,3.2001,3.2009,3.2029,3.2027,3.205,3.206,3.2074,3.2097,3.2131,3.2153,3.2186,3.2249,3.2255,3.2278,3.2286,3.2292,3.2299,3.2334,3.2345,3.223,3.223,3.223,0,0,3.1915,3.1931,3.1953,3.1996,3.2013,3.2049,3.2017,3.2057,3.2084,3.2066,3.2117,3.2128,3.2154,3.2213,3.224,3.2225,3.2332,3.2299,3.2304,3.2307,3.234,3.2351,3.2361,3.2234,3.2233,3.2233,0,0,3.1986,3.2002,3.2046,3.2064,3.209,3.2095,3.2106,3.2129,3.2136,3.2187,3.2174,3.2206,3.2265,3.2284,3.2301,3.238,3.2369,3.239,3.2431,3.2465,3.2474,3.2482,3.2511,3.2521,3.2397,3.2397,3.2397,0,3.2018,3.2072,3.207,3.2111,3.213,3.2115,3.2161,3.2178,3.2213,3.2227,3.221,3.2283,3.2299,3.2363,3.2382,3.2396,3.2409,3.2388,3.2473,3.2481,3.2489,3.2516,3.2526,3.2399,3.2399,3.2399,3.2399,0,3.2111,3.2148,3.2181,3.2215,3.2239,3.2281,3.2287,3.231,3.2307,3.2314,3.2367,3.2386,3.2422,3.2436,3.2433,3.25,3.249,3.2473,3.2441,3.2502,3.2528,3.2538,3.2403,3.2402,3.2401,3.2401,0,0,3.2203,3.2236,3.2248,3.2264,3.2291,3.232,3.2363,3.2397,3.2418,3.2443,3.2479,3.2529,3.2513,3.2533,3.2532,3.2562,3.2624,3.2541,3.2542,3.2556,3.2699,3.2712,3.2724,3.2616,3.2618,3.262,3.2697,0,3.2276,3.235,3.235,3.2418,3.2453,3.2439,3.2476,3.2498,3.2506,3.2537,3.2546,3.2581,3.2558,3.257,3.2599,3.261,3.2652,3.2604,3.265,3.2652,3.2644,3.2737,3.2751,3.2822,3.2707,3.2708,3.271,0,3.2372,3.24,3.2471,3.2494,3.2509,3.2542,3.2574,3.2604,3.2628,3.2632,3.2654,3.2648,3.2692,3.2659,3.272,3.2687,3.2706,3.2714,3.2717,3.2721,3.2685,3.2745,3.2845,3.2856,3.2725,3.2724,3.2723,0,3.2432,3.2488,3.2538,3.2552,3.258,3.2603,3.2616,3.2638,3.2659,3.2688,3.2701,3.2734,3.2753,3.2779,3.2782,3.2758,3.2843,3.2811,3.2848,3.2848,3.2867,3.2866,3.2972,3.2878,3.2878,3.2878,3.2878,0,3.2514,3.2559,3.2566,3.2597,3.2646,3.2646,3.2695,3.2706,3.2726,3.2759,3.2749,3.2781,3.2783,3.2816,3.2819,3.2869,3.2877,3.2882,3.2882,3.2883,3.2882,3.2895,3.2891,3.2881,3.288,3.288,3.2879,0,3.2591,3.2597,3.2651,3.2673,3.2679,3.2715,3.2734,3.2764,3.2771,3.2813,3.2823,3.2834,3.2872,3.2878,3.2922,3.2924,3.2984,3.2979,3.2976,3.2976,3.3013,3.3009,3.3132,3.3148,3.3043,3.3044,3.3045,0,3.2643,3.2677,3.2703,3.2724,3.2738,3.2772,3.2794,3.2795,3.2818,3.2848,3.2874,3.2911,3.294,3.3001,3.3014,3.3048,3.3044,3.3085,3.3049,3.3049,3.3045,3.3043,3.3047,3.3092,3.3093,3.3094,3.3094,0,3.2735,3.2737,3.2768,3.28,3.2826,3.2852,3.2876,3.2894,3.2898,3.2924,3.2963,3.2986,3.3031,3.3068,3.3101,3.3115,3.3106,3.3105,3.3116,3.3117,3.3114,3.3117,3.2995,3.3103,3.3102,3.3101,3.3101,3.31,3.2801,3.2831,3.2854,3.2889,3.2907,3.293,3.2959,3.297,3.3002,3.3039,3.3037,3.308,3.3103,3.3148,3.3163,3.3197,3.3184,3.3199,3.3203,3.3207,3.3211,3.3109,3.3203,3.3203,3.3203,3.3202,3.3202,0,3.2894,3.2908,3.294,3.2974,3.3002,3.299,3.3016,3.304,3.3078,3.31,3.3129,3.3174,3.3209,3.3224,3.326,3.3283,3.328,3.3293,3.3291,3.3295,3.322,3.3208,3.3295,3.3295,3.3295,3.3295,3.3295,3.3295,3.2945,3.2995,3.2999,3.3058,3.3071,3.3113,3.3129,3.315,3.3168,3.3218,3.3247,3.3257,3.3277,3.3313,3.3345,3.3349,3.3363,3.3377,3.3379,3.3309,3.33,3.3291,3.3279,3.338,3.338,3.3451,3.3451,3.3452]},{"header":{"parameterUnit":"m.s-1","parameterCategory":1,"la1":30.2991,"la2":30.254,"lo1":-89.0895,"lo2":-89.0444,"dy":0.0017,"dx":0.0017,"nx":28,"ny":28,"refTime":"2024-07-22T03:00:00:Z","depth":0,"parameterNumber":3,"parameterNumberName":"V-component_of_WINDS"},"data":[0,0,0,0,0,0,0,0,0,0,0,0,0,0,0,0,0,0,0,0,0,0,0,0,0,0,0,0,0,0,0,0,0,0,0,0,0,0,0,0,0,0,0,0,0,0,0,0,0,0,0,0,0,0,0,0,0,0,1.6625,1.6624,0,1.655,1.6549,1.6549,1.6553,1.6555,1.6556,1.6557,1.6473,1.647,1.6467,0,0,0,0,0,0,0,0,0,0,0,0,0,1.6765,1.6762,1.6625,1.6624,1.6623,1.655,1.6549,1.6548,1.6553,1.6555,1.6556,1.6557,1.6474,1.647,1.6466,0,0,0,0,0,0,0,0,0,0,0,0,0,1.6698,1.6761,1.6625,1.6617,1.6616,1.6551,1.6549,1.6548,1.6553,1.6555,1.6556,1.6558,1.6476,1.6471,1.6466,1.6402,0,0,1.6451,1.6449,0,0,0,0,0,0,0,0,1.6702,1.6693,1.6619,1.6618,1.6616,1.6563,1.6568,1.6499,1.6553,1.6576,1.6557,1.6559,1.6501,1.6494,1.6476,1.6398,1.6395,1.6451,1.6448,1.6445,1.6444,0,0,0,0,0,0,0,1.6707,1.6696,1.6595,1.6618,1.6616,1.6615,1.6607,1.6555,1.653,1.6575,1.6575,1.6566,1.6501,1.6481,1.6474,1.6393,1.6451,1.6446,1.6443,1.6441,1.6257,1.6255,0,0,0,0,0,0,1.6714,1.67,1.6598,1.6593,1.6664,1.6611,1.6602,1.6578,1.6531,1.6525,1.6565,1.6567,1.6489,1.648,1.6472,1.6392,1.6446,1.6441,1.6438,1.6259,1.6256,1.6254,0,0,0,0,0,0,1.6717,1.6705,1.6601,1.6647,1.6633,1.6607,1.6579,1.6576,1.6556,1.6524,1.6518,1.655,1.649,1.6478,1.6419,1.6389,1.6439,1.6434,1.6261,1.6258,1.6255,1.6234,0,0,0,0,0,0,1.6721,1.6706,1.6683,1.6646,1.6631,1.6552,1.6578,1.6573,1.6549,1.655,1.6508,1.6503,1.649,1.6427,1.6414,1.6383,1.643,1.6263,1.6259,1.6256,1.6237,1.623,1.6225,0,0,0,0,0,1.6726,1.6679,1.6682,1.667,1.6602,1.655,1.6541,1.653,1.6546,1.6522,1.6501,1.6504,1.6395,1.6421,1.6407,1.6374,1.6265,1.6261,1.6256,1.6239,1.6231,1.6225,0,0,0,0,0,0,1.6711,1.6674,1.6677,1.6617,1.6587,1.6551,1.652,1.6522,1.6484,1.6487,1.6472,1.6463,1.6403,1.6383,1.6412,1.6308,1.6332,1.6324,1.6324,1.6316,1.631,1.6315,1.6426,0,0,0,0,0,1.6701,1.6665,1.6633,1.6583,1.6568,1.6547,1.6524,1.6518,1.6485,1.6471,1.6446,1.6412,1.6369,1.6342,1.6301,1.6234,1.6224,1.6205,1.6199,1.6194,1.6187,1.6148,1.6138,1.6239,1.6239,1.624,0,0,1.668,1.6655,1.6632,1.658,1.6556,1.6515,1.6536,1.6493,1.6461,1.6464,1.6407,1.6387,1.6347,1.6284,1.6254,1.6265,1.6157,1.6188,1.6185,1.618,1.6142,1.6132,1.6124,1.6236,1.6237,1.6237,0,0,1.6619,1.6598,1.6553,1.6529,1.6493,1.6479,1.6468,1.6432,1.6419,1.6362,1.6363,1.6324,1.6253,1.6224,1.6201,1.6129,1.613,1.6116,1.6083,1.6045,1.6037,1.603,1.6002,1.5992,1.611,1.611,1.611,0,1.6596,1.6538,1.653,1.6486,1.6461,1.6464,1.6417,1.6393,1.6345,1.6326,1.634,1.6249,1.6223,1.6152,1.6134,1.6116,1.6101,1.612,1.604,1.6032,1.6025,1.5998,1.5988,1.6108,1.6108,1.6108,1.6109,0,1.651,1.6469,1.6437,1.6392,1.6365,1.6319,1.6302,1.6274,1.627,1.6254,1.6194,1.6163,1.6116,1.6099,1.6094,1.6026,1.6033,1.6043,1.6066,1.6014,1.5988,1.5978,1.6106,1.6106,1.6107,1.6107,0,0,1.6437,1.6389,1.6377,1.6356,1.6316,1.6283,1.6237,1.6193,1.6168,1.6135,1.6093,1.6033,1.6042,1.6014,1.6006,1.5973,1.5915,1.5987,1.5986,1.5973,1.5835,1.5827,1.5815,1.5917,1.5915,1.5913,1.5838,0,1.6371,1.6292,1.6283,1.6211,1.6172,1.6173,1.6133,1.6102,1.6086,1.6048,1.6029,1.5985,1.6002,1.5985,1.5952,1.5929,1.5887,1.5935,1.5875,1.5873,1.5883,1.5802,1.5793,1.5723,1.5828,1.5826,1.5825,0,1.6284,1.6249,1.6174,1.6139,1.6122,1.6086,1.6044,1.6009,1.5973,1.5963,1.5933,1.5929,1.5878,1.5905,1.5833,1.5866,1.5841,1.5826,1.5823,1.5815,1.5845,1.579,1.5701,1.569,1.581,1.5811,1.5812,0,1.6235,1.617,1.6117,1.6099,1.6057,1.6031,1.6012,1.5978,1.5952,1.5914,1.5896,1.5852,1.5828,1.5793,1.5776,1.5797,1.5704,1.573,1.5692,1.5692,1.567,1.5671,1.5574,1.5658,1.5658,1.5658,1.5659,0,1.6161,1.6115,1.6094,1.6061,1.6008,1.5997,1.5943,1.5925,1.5895,1.5856,1.5854,1.5817,1.5798,1.5757,1.5744,1.5685,1.5674,1.5663,1.5659,1.5661,1.5663,1.5643,1.5647,1.5656,1.5656,1.5657,1.5657,0,1.6098,1.6083,1.6024,1.5989,1.5979,1.5941,1.591,1.5876,1.5861,1.5811,1.5799,1.5772,1.5724,1.5705,1.5645,1.5636,1.5567,1.5568,1.558,1.5578,1.554,1.5543,1.5425,1.5408,1.5505,1.5504,1.5504,0,1.6051,1.6015,1.5977,1.5952,1.5932,1.5892,1.5865,1.5852,1.5824,1.5781,1.5751,1.5704,1.5665,1.5587,1.5561,1.5515,1.5513,1.5475,1.5506,1.5509,1.5509,1.5511,1.5506,1.5469,1.5468,1.5467,1.5466,0,1.5968,1.5962,1.5925,1.5884,1.5853,1.582,1.5788,1.5767,1.5748,1.5716,1.5668,1.5638,1.5578,1.5529,1.5481,1.5459,1.5458,1.5457,1.5445,1.5446,1.5453,1.5446,1.5562,1.5459,1.546,1.546,1.5461,1.5461,1.5909,1.5877,1.5845,1.5803,1.5778,1.5748,1.5714,1.5694,1.5655,1.5606,1.56,1.5548,1.5511,1.5447,1.5423,1.5379,1.5389,1.5372,1.5368,1.5363,1.536,1.5462,1.5371,1.5371,1.5371,1.5371,1.5371,0,1.5824,1.5804,1.5766,1.5721,1.5688,1.5693,1.5658,1.5628,1.5583,1.555,1.5512,1.5455,1.5408,1.5379,1.5331,1.5301,1.53,1.5289,1.5289,1.5284,1.5355,1.5369,1.5291,1.5291,1.5291,1.5291,1.5291,1.5291,1.5776,1.5721,1.5711,1.5643,1.5622,1.5573,1.5551,1.5522,1.5496,1.5433,1.5395,1.5377,1.5345,1.5294,1.525,1.5242,1.5223,1.5211,1.5204,1.5271,1.5279,1.5287,1.53,1.5208,1.5208,1.5136,1.5135,1.5134]}]]